Powrót do katalogu

STARLINK-31971

AktywnyŁącznośćVLEO
NORAD 59934·PAYLOAD·🇺🇸 United States

Wystrzelony Jun 1, 2024 z Cape Canaveral Space Force Station

Loading…

Następne Przeloty (najbliższe 24 godziny)

TLE

ŚwieżeSource: CelesTrak SupGP

Epoka: Sep 14, 2026, 21:44 UTC

1 59934C 24106N   26257.90604167 -.00016431  00000+0 -59511-3 0  2575
2 59934  43.0037 340.7319 0001724 276.4075 175.6307 15.27587869    19

Śledź STARLINK-31971 w czasie rzeczywistym z AllMySat

Download on the App Store